AAL1685 KMIA-KAUS

Flight info

Callsign AAL1685
Flight time N/A
Altitude 36000
Route GLADZ4 BAGGS Y290 BACCA ROZZI Y280 LEV LCH WEEED WLEEE7
Aircraft B738/M-SDE2E3FGHIRWXY/LB1

Departure

Time 2026-05-04 19:37
Airport Miami International Airport (KMIA)

Arrival

Time N/A
Airport Austin Bergstrom International Airport (KAUS)
Time Latitude Longitude Altitude Speed Heading
2026-05-04 19:15 25.79238 -80.28065 22 ft 0 kts 308°
2026-05-04 19:24 25.79235 -80.28061 22 ft 2 kts 309°
2026-05-04 19:24 25.79223 -80.28048 25 ft 2 kts 342°
2026-05-04 19:25 25.79207 -80.28044 21 ft 2 kts
2026-05-04 19:25 25.79192 -80.28041 25 ft 2 kts 281°
2026-05-04 19:25 25.79195 -80.28024 26 ft 2 kts 248°
2026-05-04 19:25 25.79202 -80.28007 22 ft 2 kts 221°
2026-05-04 19:26 25.79214 -80.27998 26 ft 1 kts 212°
2026-05-04 19:26 25.79215 -80.27997 26 ft 0 kts 212°
2026-05-04 19:28 25.79213 -80.27998 26 ft 1 kts 212°
2026-05-04 19:29 25.79184 -80.28016 25 ft 9 kts 207°
2026-05-04 19:29 25.79107 -80.28054 21 ft 16 kts 201°
2026-05-04 19:29 25.79049 -80.28137 21 ft 0 kts 248°
2026-05-04 19:29 25.79048 -80.28137 21 ft 1 kts 240°
2026-05-04 19:30 25.79035 -80.28149 22 ft 6 kts 218°
2026-05-04 19:30 25.79010 -80.28209 20 ft 12 kts 280°
2026-05-04 19:30 25.79058 -80.28310 20 ft 18 kts 298°
2026-05-04 19:30 25.79134 -80.28451 16 ft 24 kts 305°
2026-05-04 19:31 25.79234 -80.28622 15 ft 28 kts 299°
2026-05-04 19:31 25.79340 -80.28828 13 ft 32 kts 301°
2026-05-04 19:31 25.79452 -80.29048 16 ft 33 kts 299°
2026-05-04 19:31 25.79566 -80.29273 18 ft 34 kts 299°
2026-05-04 19:32 25.79672 -80.29479 16 ft 24 kts 299°
2026-05-04 19:32 25.79737 -80.29607 15 ft 2 kts 300°
2026-05-04 19:32 25.79749 -80.29630 14 ft 6 kts 300°
2026-05-04 19:32 25.79778 -80.29687 12 ft 11 kts 300°
2026-05-04 19:33 25.79795 -80.29720 12 ft 0 kts 299°
2026-05-04 19:33 25.79798 -80.29727 12 ft 4 kts 299°
2026-05-04 19:33 25.79823 -80.29776 12 ft 11 kts 300°
2026-05-04 19:33 25.79870 -80.29865 13 ft 16 kts 300°
2026-05-04 19:34 25.79922 -80.29968 12 ft 0 kts 298°
2026-05-04 19:36 25.79939 -80.30006 12 ft 14 kts 295°
2026-05-04 19:36 25.80013 -80.30114 15 ft 20 kts 344°
2026-05-04 19:36 25.80074 -80.30063 13 ft 4 kts 81°
2026-05-04 19:37 25.80087 -80.29764 14 ft 79 kts 88°
2026-05-04 19:37 25.80120 -80.28895 21 ft 147 kts 88°
2026-05-04 19:37 25.80133 -80.27619 450 ft 174 kts 90°
2026-05-04 19:37 25.80109 -80.26145 935 ft 208 kts 86°
2026-05-04 19:38 25.80148 -80.24401 1189 ft 245 kts 82°
2026-05-04 19:38 25.80376 -80.22443 1820 ft 255 kts 81°
2026-05-04 19:38 25.80489 -80.20580 3151 ft 232 kts 83°
2026-05-04 19:38 25.80585 -80.18780 3821 ft 237 kts 77°
2026-05-04 19:39 25.81253 -80.17130 4329 ft 239 kts 46°
2026-05-04 19:39 25.82612 -80.16118 4871 ft 240 kts 15°
2026-05-04 19:39 25.84270 -80.15831 5195 ft 242 kts
2026-05-04 19:39 25.85963 -80.15778 5274 ft 244 kts 359°
2026-05-04 19:40 25.87673 -80.15743 5270 ft 247 kts 359°
2026-05-04 19:40 25.89398 -80.15744 5294 ft 249 kts 352°
2026-05-04 19:40 25.91110 -80.16211 5278 ft 259 kts 341°
2026-05-04 19:40 25.92847 -80.16855 5268 ft 263 kts 341°
2026-05-04 19:41 25.94581 -80.17492 5261 ft 263 kts 341°
2026-05-04 19:41 25.96312 -80.18113 5268 ft 259 kts 341°